Location: Washington
(38.8950°N, 77.0370°W)
Time: 03:31:37
(UTC-04:00)

ISS - All Passes

Search period start: 26 May 2015 00:00
Search period end: 05 June 2015 00:00
Orbit: 399 x 404 km, 51.6° (Epoch: 26 May)

Date Brightness Start Highest point End Pass type
(mag) Time Alt. Az. Time Alt. Az. Time Alt. Az.
26 May - 00:04:35 10° SW 00:07:45 54° SE 00:10:56 10° ENE night (unlit)
26 May - 01:41:50 10° WNW 01:44:22 20° NNW 01:46:55 10° NNE visible
26 May - 04:57:58 10° N 04:59:23 12° NNE 05:00:51 10° NE visible
26 May - 06:33:18 10° NW 06:36:28 45° NE 06:39:38 10° ESE daylight
26 May - 08:10:24 10° W 08:12:40 17° SW 08:14:51 10° S daylight
26 May - 23:11:55 10° S 23:14:38 25° SE 23:17:24 10° ENE night (unlit)
27 May - 00:48:00 10° W 00:50:59 32° NNW 00:53:58 10° NE visible
27 May - 02:27:21 10° NNW 02:28:12 11° NNW 02:29:01 10° N visible
27 May - 05:40:18 10° NNW 05:43:07 26° NNE 05:45:58 10° E daylight
27 May - 07:16:34 10° WNW 07:19:35 34° SW 07:22:35 10° SSE daylight
27 May - 22:20:07 10° SSE 22:21:34 13° SE 22:23:09 10° E night (unlit)
27 May - 23:54:28 10° WSW 23:57:40 59° NW 00:00:53 10° NE visible
28 May - 01:32:53 10° NW 01:34:39 14° NNW 01:36:22 10° NNE visible
28 May - 04:47:23 10° NNW 04:49:41 18° NNE 04:52:01 10° ENE visible
28 May - 06:23:09 10° NW 06:26:26 75° SW 06:29:41 10° SE daylight
28 May - 23:01:14 10° SW 23:04:25 66° SE 23:07:40 10° ENE night (unlit)
29 May - 00:38:43 10° WNW 00:41:07 19° NNW 00:43:31 10° NNE visible
29 May - 03:54:32 10° NNW 03:56:09 13° NNE 03:57:49 10° NE visible
29 May - 05:29:58 10° NW 05:33:10 53° NE 05:36:22 10° ESE daylight
29 May - 07:07:23 10° W 07:09:18 14° SW 07:11:08 10° SSW daylight
29 May - 22:08:23 10° SSW 22:11:16 30° SE 22:14:11 10° ENE night (unlit)
29 May - 23:44:47 10° W 23:47:40 28° NNW 23:50:33 10° NNE visible
30 May - 01:24:28 10° NNW 01:24:57 10° N 01:25:24 10° N visible
30 May - 03:01:57 10° N 03:02:33 10° N 03:03:13 10° NNE visible
30 May - 04:36:53 10° NNW 04:39:48 30° NNE 04:42:45 10° E visible
30 May - 06:13:19 10° WNW 06:16:12 29° SW 06:19:03 10° SSE daylight
30 May - 21:16:14 10° SSE 21:18:09 15° SE 21:20:09 10° E visible
30 May - 22:51:08 10° WSW 22:54:17 50° NW 22:57:29 10° NE visible
31 May - 00:29:46 10° NW 00:31:20 13° NNW 00:32:52 10° NNE visible
31 May - 03:43:54 10° NNW 03:46:21 19° NNE 03:48:49 10° ENE visible
31 May - 05:19:47 10° WNW 05:23:01 61° SW 05:26:14 10° SE daylight
31 May - 21:57:46 10° SW 22:01:00 79° SE 22:04:15 10° NE visible
31 May - 23:35:30 10° WNW 23:37:46 17° NNW 23:40:00 10° NNE visible
01 Jun - 02:51:01 10° NNW 02:52:48 14° NNE 02:54:38 10° NE visible
01 Jun - 04:26:30 10° NW 04:29:45 63° NE 04:32:59 10° ESE visible
01 Jun - 06:04:24 10° WSW 06:05:50 12° SW 06:07:08 10° SSW daylight
01 Jun - 21:04:47 10° SSW 21:07:47 36° SE 21:10:48 10° ENE visible
01 Jun - 22:41:28 10° W 22:44:15 25° NNW 22:47:02 10° NNE visible
02 Jun - 01:58:16 10° N 01:59:11 11° NNE 02:00:08 10° NNE visible
02 Jun - 03:33:22 10° NW 03:36:22 33° NNE 03:39:23 10° E visible
02 Jun - 05:09:58 10° WNW 05:12:42 24° SW 05:15:23 10° S visible
02 Jun - 20:12:23 10° S 20:14:37 18° SE 20:16:55 10° E daylight
02 Jun - 21:47:43 10° WSW 21:50:49 43° NNW 21:53:56 10° NE visible
02 Jun - 23:26:33 10° NW 23:27:55 12° NNW 23:29:13 10° N visible
03 Jun - 02:40:19 10° NNW 02:42:54 21° NNE 02:45:29 10° ENE visible
03 Jun - 04:16:19 10° WNW 04:19:29 51° SW 04:22:40 10° SE visible
03 Jun - 20:54:14 10° SW 20:57:28 87° NNW 21:00:43 10° NE visible
03 Jun - 22:32:11 10° WNW 22:34:17 16° NNW 22:36:22 10° NNE visible
04 Jun - 01:47:22 10° NNW 01:49:19 15° NNE 01:51:19 10° ENE visible
04 Jun - 03:22:57 10° NW 03:26:13 75° NE 03:29:28 10° SE visible
04 Jun - 05:01:51 10° WSW 05:02:14 10° SW 05:02:28 10° SW visible
04 Jun - 20:01:06 10° SSW 20:04:11 43° SE 20:07:17 10° ENE daylight
04 Jun - 21:38:03 10° W 21:40:43 23° NNW 21:43:23 10° NNE visible
